Regional Weather Roundup
Issued by NWS Albany, NY

Home | Current Version | Previous Version | Text Only | Print | Product List | Glossary On
Versions: 1 2 3 4 5 6 7 8 9 10 11 12 13 14 15 16 17 18 19 20 21 22 23 24 25 26 27 28 29 30 31 32 33 34 35 36 37 38 39 40 41 42 43 44 45 46 47 48 49 50
000
ASUS41 KALY 301110
RWRALY

NEW YORK STATE HOURLY WEATHER ROUNDUP
NATIONAL WEATHER SERVICE ALBANY NY
700 AM EDT TUE SEP 30 2014

NOTE: "FAIR" INDICATES FEW OR NO CLOUDS BELOW 12,000 FEET WITH NO
SIGNIFICANT WEATHER AND/OR NO OBSTRUCTIONS TO VISIBILITY.

NYZ032-033-038>043-046>054-057>066-NYZ062>081-301200-
EAST


CITY           SKY/WX    TMP DP  RH WIND       PRES   REMARKS
ALBANY         CLOUDY    57  55  93 CALM      29.97R
GLENS FALLS    CLOUDY    58  55  90 CALM      29.97S
POUGHKEEPSIE   PTCLDY    59  57  93 CALM      29.94R
NEWBURGH       MOCLDY    59  59 100 SE7       29.96R FOG
MONTGOMERY     FOG       53  52  96 CALM      29.95R VSB 1/2
WHITE PLAINS   CLOUDY    65  62  90 E6        29.96R FOG
ISLIP          CLOUDY    65  63  93 NE7       29.93R FOG
NEW YORK CITY  CLOUDY    68  64  88 CALM      29.94R FOG
CENTRAL PARK   CLOUDY    68  61  78 SE3       29.98R
$$

NYZ005>009-017-018-044>046-055-056-301200-
CENTRAL


CITY           SKY/WX    TMP DP  RH WIND       PRES   REMARKS
FULTON         PTCLDY    55  53  93 CALM      29.90R FOG
SYRACUSE       PTCLDY    53  52  96 CALM      29.90R
ROME           CLEAR     55  53  93 SE7       29.94R
ELMIRA         FOG       51  51 100 CALM      29.92R VSB 1/8
BINGHAMTON     CLEAR     54  53  97 SE7       29.92S FOG
MONTICELLO     CLOUDY    55  55 100 E3        29.97S
$$

NYZ026>034-041>043-301200-
NORTH


CITY           SKY/WX    TMP DP  RH WIND       PRES   REMARKS
WATERTOWN      CLOUDY    53  48  83 NE7       29.92R HAZE
FORT DRUM      NOT AVBL
MASSENA        CLOUDY    48  47  96 E8        29.98S FOG
SARANAC LAKE   CLOUDY    40  39  97 CALM      29.96R
PLATTSBURGH    CLOUDY    46  44  93 NW5       29.99R
$$

NYZ001>004-010>016-019>021-301200-
WEST


CITY           SKY/WX    TMP DP  RH WIND       PRES   REMARKS
NIAGARA FALLS  PTCLDY    53  51  93 CALM      29.88S FOG
BUFFALO        PTCLDY    54  51  90 S3        29.89R
DUNKIRK        PTCLDY    51  49  92 CALM      29.89R
JAMESTOWN      CLOUDY    48  48 100 S5        29.91S VSB 1/4
WELLSVILLE     FOG       50  49  96 CALM      29.94R VSB 1
ROCHESTER      MOCLDY    55  53  93 SW3       29.90R
PENN YAN       PTCLDY    55  54  96 SW3       29.91R FOG
$$

             KEY
       WCI = WIND CHILL INDEX
       VSB = VISIBILITY
       HX  = HEAT INDEX
$$


USA.gov is the U.S. government's official web portal to all federal, state and local government web resources and services.